Weather in Yangelskiy

Russia / Chelyabinsk Oblast     53°07′32″N   58°59′00″E
temp.,
°C
wind,
m/s
gust,
m/s
humid.,
%
clouds,
%
prec.,
mm/h
press.,
hPa
HPBL,
m
28 october, thu
thu2823:00+1sw61266100 0.0 1022454
02:00+1sw61364100 0.0 1021507
05:000sw71263100 0.0 1019460
08:000sw71659100 0.0 1018631
11:00+3wsw9175033 0.0 1017901
14:00+4wsw9164912 0.0 10161036
17:00+3wsw91559100 0.0 1016850
20:00+1wsw8167699 0.0 1017637
29 october, fri
fri2923:00+1wsw71577100 0.0 1017600
02:00+1wsw61475100 0.0 1017534
05:00+1wsw51175100 0.0 1018535
08:00+2wsw51174100 0.0 1018548
11:00+3wsw6107398 0.0 1019623
14:00+5wnw6766100 0.0 10201000
17:00+4wnw457447 0.0 1023448
20:00+3nnw347094 0.0 1026206
30 october, sat
sat3023:000e349015 0.0 1028139
02:00−1sse1185100 0.0 102913
05:00−1sw2388100 0.0 102985
08:00−1sw4881100 0.0 1029294
11:00+3wsw6116699 0.0 1027727
14:00+4wsw81371100 0.0 1026974
17:00+4wsw91774100 0.0 1024884
20:00+4wsw9177351 0.0 1023704
31 october, sun
sun3123:00+4w81777100 0.0 1022736
02:00+5w61384100 0.0 1022720
05:00+5w6118577 0.0 1023430
08:00+4w479193 0.0 1024172
11:00+7w4780100 0.0 1025468
14:00+7w4678100 0.0 1026452
17:00+7w597681 0.0 1026355
20:00+6w4878100 0.0 1027309
1 november, mon
mon123:00+6wsw597756 0.0 1026482
02:00+6w61284100 0.0 1025755
05:00+7w71380100 0.0 1023603
08:00+6w61380100 0.0 1022413
11:00+8w71567100 0.0 1022577
14:00+10wnw71357100 0.0 1021702
17:00+8wnw71363100 0.0 1021551
20:00+7wnw71464100 0.0 1021496